TimeMST,TemperatureF,Dew PointF,Humidity,Sea Level PressureIn,VisibilityMPH,Wind Direction,Wind SpeedMPH,Gust SpeedMPH,PrecipitationIn,Events,Conditions,WindDirDegrees,DateUTC
12:53 AM,28.9,16.0,58,30.41,10.0,WNW,11.5,-,N/A,,Clear,300,2013-01-17 07:53:00
1:53 AM,26.1,16.0,66,30.42,10.0,WNW,9.2,-,N/A,,Clear,300,2013-01-17 08:53:00
2:53 AM,25.0,15.1,66,30.43,10.0,NW,11.5,-,N/A,,Clear,310,2013-01-17 09:53:00
3:53 AM,28.0,16.0,61,30.44,10.0,WNW,13.8,-,N/A,,Clear,290,2013-01-17 10:53:00
4:53 AM,21.9,15.1,75,30.48,10.0,West,12.7,-,N/A,,Clear,280,2013-01-17 11:53:00
5:53 AM,21.9,15.1,75,30.50,10.0,WNW,15.0,-,N/A,,Clear,290,2013-01-17 12:53:00
6:53 AM,21.9,15.1,75,30.51,10.0,West,13.8,-,N/A,,Clear,280,2013-01-17 13:53:00
7:53 AM,23.0,16.0,74,30.54,10.0,WSW,11.5,-,N/A,,Clear,250,2013-01-17 14:53:00
8:53 AM,28.0,18.0,66,30.56,10.0,West,9.2,-,N/A,,Clear,260,2013-01-17 15:53:00
9:53 AM,34.0,19.0,54,30.54,10.0,West,8.1,-,N/A,,Clear,270,2013-01-17 16:53:00
10:53 AM,39.0,21.0,49,30.48,10.0,SW,10.4,-,N/A,,Clear,230,2013-01-17 17:53:00
11:53 AM,46.0,17.1,31,30.43,10.0,South,16.1,-,N/A,,Clear,190,2013-01-17 18:53:00
12:53 PM,46.9,17.1,30,30.38,10.0,SSW,15.0,-,N/A,,Clear,200,2013-01-17 19:53:00
1:53 PM,48.0,19.0,32,30.35,10.0,SW,16.1,-,N/A,,Clear,220,2013-01-17 20:53:00
2:53 PM,48.0,21.0,34,30.35,10.0,SW,11.5,-,N/A,,Clear,220,2013-01-17 21:53:00
3:53 PM,46.9,21.9,37,30.33,10.0,SSW,6.9,-,N/A,,Clear,210,2013-01-17 22:53:00
4:53 PM,42.1,21.9,45,30.37,10.0,South,6.9,-,N/A,,Clear,170,2013-01-17 23:53:00
5:53 PM,39.0,21.9,50,30.36,10.0,South,10.4,-,N/A,,Clear,180,2013-01-18 00:53:00
6:53 PM,36.0,21.9,57,30.37,10.0,SSW,11.5,-,N/A,,Clear,200,2013-01-18 01:53:00
7:53 PM,37.0,21.0,52,30.35,10.0,SSW,13.8,-,N/A,,Clear,210,2013-01-18 02:53:00
8:53 PM,36.0,19.9,52,30.31,10.0,SSW,15.0,-,N/A,,Clear,210,2013-01-18 03:53:00
9:53 PM,36.0,19.9,52,30.27,10.0,SW,16.1,-,N/A,,Clear,220,2013-01-18 04:53:00
10:53 PM,36.0,19.0,50,30.23,10.0,SW,16.1,-,N/A,,Clear,220,2013-01-18 05:53:00
11:53 PM,32.0,19.0,59,30.20,10.0,WSW,19.6,-,N/A,,Clear,250,2013-01-18 06:53:00